[[{"header":{"parameterUnit":"m.s-1","parameterCategory":2,"la1":30.2991,"la2":30.254,"lo1":-89.0895,"lo2":-89.0444,"dy":0.0017,"dx":0.0017,"nx":28,"ny":28,"refTime":"2024-08-03T03:00:00:Z","depth":"0","parameterNumber":2,"parameterNumberName":"U-component_of_CURRENTS"},"data":[0,0,0,0,0,0,0,0,0,0,0,0,0,0,0,0,0,0,0,0,0,0,0,0,0,0,0,0,0,0,0,0,0,0,0,0,0,0,0,0,0,0,0,0,0,0,0,0,0,0,0,0,0,0,0,0,0,0,0.3722,0.3722,0,0.3766,0.3767,0.3768,0.3779,0.3779,0.3779,0.3778,0.3786,0.3787,0.3787,0,0,0,0,0,0,0,0,0,0,0,0,0,0.3749,0.3748,0.3721,0.3722,0.3722,0.3766,0.3767,0.3768,0.3779,0.3779,0.3778,0.3778,0.3786,0.3787,0.3788,0,0,0,0,0,0,0,0,0,0,0,0,0,0.3761,0.3748,0.3721,0.3733,0.3734,0.3766,0.3767,0.3768,0.3779,0.3779,0.3778,0.3778,0.3786,0.3787,0.3788,0.3804,0,0,0.379,0.3791,0,0,0,0,0,0,0,0,0.376,0.376,0.3731,0.3732,0.3734,0.3766,0.378,0.3778,0.378,0.3763,0.3778,0.3778,0.3776,0.3777,0.3789,0.3804,0.3805,0.379,0.3791,0.3791,0.3791,0,0,0,0,0,0,0,0.3759,0.3759,0.374,0.3731,0.3733,0.3771,0.3771,0.378,0.3772,0.3765,0.3765,0.3769,0.3776,0.3788,0.3789,0.3805,0.379,0.3791,0.3792,0.3792,0.3874,0.3876,0,0,0,0,0,0,0.3746,0.3757,0.3739,0.3742,0.3744,0.377,0.3771,0.3757,0.3773,0.3775,0.3769,0.3769,0.3787,0.3788,0.379,0.3842,0.3791,0.3792,0.3792,0.3873,0.3875,0.3876,0,0,0,0,0,0,0.3746,0.3743,0.3737,0.3751,0.3752,0.3769,0.3755,0.3758,0.3771,0.3777,0.3778,0.3778,0.3787,0.3788,0.3801,0.3841,0.3792,0.3793,0.3871,0.3873,0.3875,0.3925,0,0,0,0,0,0,0.3747,0.3743,0.3738,0.3749,0.3751,0.376,0.3755,0.3759,0.3773,0.3774,0.3785,0.3785,0.3787,0.38,0.3802,0.3841,0.3794,0.3868,0.3872,0.3875,0.3922,0.3929,0.3936,0,0,0,0,0,0.3747,0.3741,0.3737,0.3736,0.374,0.3761,0.3766,0.3778,0.3774,0.3786,0.379,0.3785,0.3822,0.3801,0.3803,0.3844,0.3867,0.3871,0.3874,0.3918,0.3928,0.3936,0,0,0,0,0,0,0.3747,0.3741,0.3738,0.3728,0.3745,0.3762,0.3774,0.3781,0.3796,0.3793,0.3794,0.3796,0.3836,0.3826,0.3803,0.3879,0.3849,0.3853,0.3882,0.389,0.3897,0.3936,0.3794,0,0,0,0,0,0.3744,0.3735,0.3744,0.3736,0.3744,0.376,0.3772,0.378,0.3791,0.3797,0.3808,0.3823,0.3855,0.3857,0.3884,0.3905,0.3946,0.3937,0.3945,0.3951,0.3985,0.4106,0.4128,0.3889,0.3889,0.3889,0,0,0.3742,0.3737,0.3732,0.3737,0.3748,0.3775,0.3766,0.3783,0.3814,0.3795,0.3836,0.3853,0.387,0.3912,0.3928,0.3903,0.4028,0.3955,0.396,0.3992,0.4113,0.4137,0.4158,0.3891,0.3891,0.389,0,0,0.3734,0.3728,0.3723,0.3746,0.3764,0.3783,0.3788,0.3812,0.3832,0.3863,0.3877,0.3919,0.3935,0.3979,0.3996,0.4057,0.4075,0.4054,0.4107,0.4224,0.4245,0.4265,0.4297,0.432,0.4043,0.4043,0.4043,0,0.3734,0.3728,0.373,0.3745,0.3773,0.3788,0.3815,0.3843,0.3872,0.3907,0.388,0.398,0.3983,0.4073,0.4092,0.4079,0.4118,0.4068,0.4236,0.4256,0.4276,0.4305,0.4329,0.4046,0.4045,0.4045,0.4045,0,0.3726,0.3742,0.3747,0.3772,0.3803,0.3829,0.3871,0.3909,0.393,0.3967,0.4055,0.4075,0.414,0.4145,0.4131,0.4269,0.424,0.4243,0.4217,0.4304,0.4327,0.4351,0.405,0.4049,0.4048,0.4047,0,0,0.3679,0.3731,0.3735,0.3771,0.3825,0.3853,0.3917,0.3991,0.4059,0.4091,0.4192,0.4242,0.4268,0.4293,0.4298,0.438,0.4518,0.4363,0.4367,0.4398,0.4729,0.4523,0.4529,0.4556,0.4562,0.4566,0.4672,0,0.3678,0.372,0.3746,0.3814,0.3854,0.3911,0.3981,0.4055,0.4118,0.4222,0.4278,0.4369,0.4319,0.4362,0.4443,0.453,0.4593,0.4486,0.4639,0.4642,0.4455,0.4556,0.4282,0.4339,0.4696,0.47,0.4702,0,0.3663,0.3703,0.3763,0.3868,0.389,0.3937,0.4072,0.4139,0.4284,0.4338,0.4439,0.4491,0.4623,0.4569,0.4753,0.4688,0.4716,0.4756,0.4761,0.4581,0.4485,0.4321,0.4369,0.428,0.474,0.4737,0.4734,0,0.3646,0.3719,0.3773,0.3807,0.3923,0.3972,0.404,0.4176,0.4264,0.4432,0.4521,0.4661,0.4755,0.4852,0.4893,0.4857,0.5081,0.5041,0.4871,0.4854,0.4658,0.4612,0.4646,0.5181,0.5181,0.518,0.518,0,0.3652,0.37,0.3771,0.3812,0.3908,0.3978,0.4104,0.4196,0.4352,0.4467,0.4585,0.4693,0.4843,0.4957,0.4977,0.4987,0.5148,0.4912,0.4896,0.4654,0.461,0.455,0.4525,0.5184,0.5183,0.5183,0.5182,0,0.3647,0.3691,0.3764,0.3866,0.3909,0.3979,0.4133,0.4223,0.4369,0.4531,0.4593,0.4782,0.4897,0.4984,0.5143,0.5072,0.4961,0.5068,0.472,0.4659,0.4351,0.4337,0.4227,0.4122,0.4906,0.4902,0.4898,0,0.365,0.3685,0.3789,0.3844,0.3896,0.4005,0.4086,0.4227,0.4312,0.4552,0.4619,0.4791,0.4836,0.4962,0.4895,0.4878,0.481,0.4614,0.4489,0.4319,0.4297,0.4173,0.4087,0.4239,0.4231,0.4224,0.4218,0,0.367,0.3698,0.3762,0.3857,0.3935,0.4026,0.4132,0.4194,0.4348,0.4446,0.455,0.4608,0.4673,0.4521,0.4499,0.446,0.4363,0.4462,0.443,0.3897,0.3632,0.3524,0.4143,0.4156,0.4162,0.4167,0.417,0.4173,0.3675,0.3716,0.3783,0.3861,0.3942,0.3998,0.3998,0.4074,0.4142,0.4163,0.4345,0.4276,0.4229,0.412,0.4064,0.3802,0.389,0.3665,0.3698,0.3616,0.34,0.3823,0.3722,0.3726,0.3729,0.3732,0.3734,0,0.3668,0.3713,0.3785,0.3846,0.3853,0.3925,0.398,0.3895,0.3832,0.3874,0.3857,0.3715,0.3542,0.3485,0.3261,0.3096,0.2987,0.3032,0.2854,0.284,0.3345,0.3199,0.2804,0.2805,0.2805,0.2805,0.2805,0.2805,0.3675,0.3712,0.3726,0.3712,0.3732,0.3655,0.3619,0.3496,0.345,0.3226,0.307,0.306,0.3116,0.2975,0.2746,0.2666,0.2544,0.2334,0.2474,0.2879,0.2942,0.3003,0.2862,0.2404,0.2403,0.1798,0.1793,0.179]},{"header":{"parameterUnit":"m.s-1","parameterCategory":2,"la1":30.2991,"la2":30.254,"lo1":-89.0895,"lo2":-89.0444,"dy":0.0017,"dx":0.0017,"nx":28,"ny":28,"refTime":"2024-08-03T03:00:00:Z","depth":"0","parameterNumber":3,"parameterNumberName":"V-component_of_CURRENTS"},"data":[0,0,0,0,0,0,0,0,0,0,0,0,0,0,0,0,0,0,0,0,0,0,0,0,0,0,0,0,0,0,0,0,0,0,0,0,0,0,0,0,0,0,0,0,0,0,0,0,0,0,0,0,0,0,0,0,0,0,0.0297,0.0297,0,0.0269,0.0269,0.0269,0.0243,0.0242,0.0242,0.0242,0.021,0.0209,0.0209,0,0,0,0,0,0,0,0,0,0,0,0,0,0.0321,0.032,0.0297,0.0297,0.0297,0.027,0.0269,0.0269,0.0243,0.0242,0.0242,0.0242,0.021,0.0209,0.0209,0,0,0,0,0,0,0,0,0,0,0,0,0,0.0304,0.032,0.0298,0.028,0.0278,0.027,0.0269,0.0269,0.0243,0.0242,0.0242,0.0241,0.021,0.0209,0.0209,0.0215,0,0,0.0206,0.0206,0,0,0,0,0,0,0,0,0.0305,0.0303,0.0283,0.0281,0.0279,0.0259,0.0265,0.025,0.0243,0.0257,0.0242,0.0241,0.0226,0.0224,0.022,0.0213,0.0212,0.0206,0.0206,0.0205,0.0205,0,0,0,0,0,0,0,0.0306,0.0304,0.0287,0.0283,0.028,0.0271,0.0268,0.0263,0.0245,0.0256,0.0254,0.025,0.0225,0.0221,0.0219,0.0212,0.0206,0.0206,0.0205,0.0205,0.0232,0.0233,0,0,0,0,0,0,0.031,0.0305,0.0288,0.0286,0.029,0.0271,0.0268,0.0266,0.0245,0.0241,0.025,0.0249,0.0223,0.022,0.0218,0.0259,0.0205,0.0205,0.0204,0.0231,0.0232,0.0233,0,0,0,0,0,0,0.031,0.0308,0.0289,0.0294,0.0291,0.0271,0.027,0.0266,0.0265,0.0241,0.0237,0.0253,0.0222,0.0219,0.0221,0.0256,0.0204,0.0204,0.0229,0.0231,0.0233,0.0317,0,0,0,0,0,0,0.0311,0.0309,0.0313,0.0295,0.0291,0.0295,0.027,0.0266,0.0263,0.0261,0.0242,0.0238,0.0222,0.0223,0.0221,0.0254,0.0203,0.0228,0.023,0.0232,0.0313,0.0322,0.0329,0,0,0,0,0,0.0312,0.0322,0.0314,0.0312,0.0296,0.0295,0.0293,0.0277,0.0264,0.0272,0.0258,0.0239,0.0235,0.0223,0.022,0.0254,0.0227,0.0229,0.0232,0.0309,0.032,0.0329,0,0,0,0,0,0,0.0333,0.032,0.031,0.0315,0.031,0.0291,0.0298,0.0283,0.0278,0.0277,0.025,0.0246,0.0263,0.0244,0.0231,0.0268,0.023,0.0232,0.029,0.0299,0.0307,0.035,0.0202,0,0,0,0,0,0.034,0.0346,0.033,0.0336,0.0336,0.0318,0.0315,0.0306,0.0296,0.0292,0.028,0.027,0.0272,0.0273,0.0268,0.0286,0.0282,0.0306,0.0315,0.0322,0.0354,0.0381,0.0395,0.0242,0.0242,0.0242,0,0,0.0349,0.0344,0.0346,0.0342,0.0336,0.0356,0.0316,0.0321,0.0344,0.0291,0.0319,0.0297,0.0282,0.0304,0.0311,0.0293,0.0357,0.0325,0.0331,0.0361,0.0385,0.04,0.0414,0.0244,0.0244,0.0243,0,0,0.0381,0.0368,0.0388,0.0392,0.039,0.0384,0.0389,0.0378,0.038,0.0395,0.0369,0.0374,0.0366,0.0373,0.0373,0.0424,0.0397,0.0412,0.0492,0.0517,0.0531,0.0543,0.0532,0.0542,0.0419,0.0419,0.0419,0,0.0391,0.0418,0.0395,0.0421,0.0437,0.0403,0.044,0.044,0.0433,0.0452,0.0417,0.0437,0.041,0.0462,0.0473,0.0447,0.0441,0.0456,0.053,0.0542,0.0553,0.0539,0.0549,0.0424,0.0423,0.0423,0.0422,0,0.0443,0.0468,0.0482,0.0509,0.0522,0.0546,0.0546,0.0561,0.0553,0.0556,0.0594,0.0563,0.0582,0.0566,0.0533,0.06,0.0562,0.0535,0.051,0.0574,0.0554,0.0563,0.043,0.0428,0.0427,0.0426,0,0,0.0461,0.051,0.0517,0.0555,0.0574,0.0594,0.0639,0.0678,0.0728,0.0711,0.0784,0.0764,0.0747,0.0747,0.0708,0.0721,0.0764,0.0664,0.0663,0.0661,0.0798,0.0722,0.0724,0.0749,0.0752,0.0754,0.0744,0,0.0513,0.0587,0.0597,0.0678,0.0721,0.0722,0.0775,0.0805,0.0821,0.088,0.0862,0.0906,0.0816,0.0834,0.0835,0.0802,0.0797,0.0768,0.0731,0.073,0.0662,0.0737,0.0708,0.0694,0.0753,0.0754,0.0755,0,0.0566,0.0613,0.0699,0.0784,0.0804,0.0845,0.0934,0.0981,0.1042,0.1059,0.1093,0.1079,0.1114,0.1019,0.1002,0.0988,0.0903,0.0854,0.0852,0.0769,0.0674,0.0644,0.0708,0.0592,0.0769,0.0768,0.0767,0,0.0605,0.0689,0.0765,0.0791,0.0874,0.092,0.0969,0.1036,0.1108,0.1187,0.1255,0.1262,0.1303,0.1224,0.111,0.1068,0.1076,0.1003,0.0848,0.0839,0.0805,0.079,0.0767,0.0981,0.0981,0.0981,0.0981,0,0.0663,0.0727,0.0789,0.0836,0.0942,0.0978,0.1101,0.1147,0.1251,0.1381,0.1358,0.1464,0.1361,0.1344,0.1195,0.1068,0.1141,0.0891,0.0853,0.0827,0.0815,0.0701,0.0615,0.0981,0.0981,0.0981,0.0981,0,0.0701,0.0742,0.0838,0.0929,0.0965,0.1043,0.1183,0.1282,0.1363,0.154,0.1583,0.1646,0.1629,0.1483,0.1374,0.1196,0.0979,0.098,0.0938,0.0894,0.0613,0.0532,0.0465,0.0422,0.082,0.0819,0.0817,0,0.0732,0.0783,0.0896,0.0968,0.1014,0.1131,0.1228,0.1327,0.1453,0.1665,0.1774,0.1812,0.1868,0.1662,0.136,0.1092,0.095,0.0862,0.0769,0.0625,0.0508,0.0458,0.0425,0.0744,0.0742,0.074,0.0739,0,0.0794,0.0826,0.0903,0.1042,0.1149,0.1282,0.1432,0.1544,0.171,0.1869,0.2081,0.2145,0.195,0.169,0.1296,0.1097,0.0771,0.0818,0.071,0.0491,0.0402,0.0333,0.0693,0.0726,0.0727,0.0728,0.0729,0.0729,0.0836,0.0895,0.0997,0.1131,0.1262,0.1435,0.1567,0.1745,0.1962,0.2209,0.2267,0.236,0.1967,0.1438,0.1169,0.0641,0.0654,0.0462,0.0388,0.0362,0.0295,0.0603,0.0562,0.0562,0.0562,0.0563,0.0563,0,0.089,0.0966,0.1092,0.1258,0.141,0.1471,0.1715,0.1866,0.2134,0.2303,0.2463,0.2271,0.1797,0.1309,0.0585,0.0265,0.019,0.0113,0.006,0.0055,0.0372,0.0342,0.0204,0.0205,0.0205,0.0205,0.0205,0.0205,0.0926,0.104,0.1104,0.1353,0.1482,0.1705,0.1852,0.2071,0.2234,0.2409,0.2406,0.238,0.2004,0.082,0.0091,-0.006,-0.0216,-0.0293,-0.0339,-0.0125,-0.0097,-0.007,-0.0113,-0.0345,-0.0345,-0.0601,-0.0604,-0.0607]}],[{"header":{"parameterUnit":"m.s-1","parameterCategory":2,"la1":30.2991,"la2":30.254,"lo1":-89.0895,"lo2":-89.0444,"dy":0.0017,"dx":0.0017,"nx":28,"ny":28,"refTime":"2024-08-03T03:00:00:Z","depth":"2","parameterNumber":2,"parameterNumberName":"U-component_of_CURRENTS"},"data":[0,0,0,0,0,0,0,0,0,0,0,0,0,0,0,0,0,0,0,0,0,0,0,0,0,0,0,0,0,0,0,0,0,0,0,0,0,0,0,0,0,0,0,0,0,0,0,0,0,0,0,0,0,0,0,0,0,0,0.2831,0.2832,0,0.2874,0.2874,0.2874,0.2881,0.2881,0.2881,0.2882,0.292,0.2921,0.2922,0,0,0,0,0,0,0,0,0,0,0,0,0,0.2811,0.2811,0.2831,0.2832,0.2834,0.2874,0.2874,0.2874,0.2881,0.2881,0.2881,0.2882,0.292,0.2921,0.2922,0,0,0,0,0,0,0,0,0,0,0,0,0,0.2828,0.2811,0.2831,0.2847,0.2849,0.2874,0.2874,0.2874,0.2881,0.2881,0.2881,0.2882,0.2919,0.2921,0.2922,0.2924,0,0,0.2926,0.2926,0,0,0,0,0,0,0,0,0.2826,0.2827,0.2843,0.2846,0.2848,0.2878,0.2882,0.2893,0.2881,0.2862,0.2882,0.2882,0.291,0.2912,0.291,0.2925,0.2927,0.2926,0.2927,0.2927,0.2928,0,0,0,0,0,0,0,0.2825,0.2826,0.2842,0.2844,0.2848,0.2871,0.2872,0.2884,0.2878,0.2864,0.2866,0.2881,0.291,0.2909,0.2911,0.2928,0.2926,0.2927,0.2928,0.2928,0.3004,0.3005,0,0,0,0,0,0,0.2829,0.2824,0.2841,0.2844,0.2845,0.2871,0.2873,0.2863,0.2879,0.2883,0.288,0.2881,0.2906,0.291,0.2913,0.2995,0.2927,0.2928,0.2929,0.3002,0.3004,0.3005,0,0,0,0,0,0,0.2828,0.2829,0.2839,0.2842,0.2846,0.2872,0.2861,0.2864,0.2885,0.2893,0.2896,0.2902,0.2907,0.2911,0.2956,0.2994,0.2929,0.293,0.3001,0.3003,0.3005,0.311,0,0,0,0,0,0,0.2827,0.2828,0.2832,0.2841,0.2846,0.2867,0.2861,0.2865,0.2895,0.2897,0.2911,0.2914,0.2907,0.2955,0.2958,0.2995,0.2931,0.2999,0.3002,0.3004,0.3105,0.3115,0.3124,0,0,0,0,0,0.2826,0.2827,0.2831,0.2835,0.2846,0.2869,0.2873,0.2889,0.2896,0.2907,0.2932,0.2915,0.2971,0.2958,0.296,0.2999,0.2998,0.3001,0.3004,0.3101,0.3113,0.3124,0,0,0,0,0,0,0.282,0.2829,0.2833,0.2837,0.286,0.2872,0.289,0.2903,0.2929,0.294,0.294,0.2945,0.2999,0.298,0.2965,0.3024,0.2978,0.2981,0.305,0.3062,0.3071,0.3086,0.2932,0,0,0,0,0,0.2822,0.2825,0.2841,0.2849,0.2859,0.2879,0.2896,0.2911,0.2934,0.2946,0.2953,0.297,0.3008,0.3022,0.3036,0.3072,0.3082,0.3092,0.3102,0.3111,0.3123,0.3206,0.3226,0.3015,0.3014,0.3014,0,0,0.2826,0.2832,0.2836,0.285,0.2865,0.2893,0.2888,0.2922,0.2951,0.2947,0.2983,0.3009,0.3026,0.3073,0.3093,0.3066,0.317,0.3114,0.3122,0.313,0.3211,0.3232,0.3251,0.3016,0.3016,0.3016,0,0,0.2831,0.2837,0.2841,0.2866,0.2902,0.2919,0.2936,0.2957,0.297,0.3017,0.3032,0.3088,0.3109,0.3143,0.3163,0.3232,0.3224,0.3226,0.3286,0.3367,0.3386,0.3403,0.3423,0.3441,0.3224,0.3224,0.3225,0,0.2841,0.2838,0.2851,0.2872,0.2903,0.2935,0.2963,0.2986,0.3022,0.3044,0.304,0.3137,0.3148,0.3243,0.3268,0.3258,0.3284,0.3247,0.3384,0.34,0.3416,0.3433,0.3451,0.323,0.3229,0.3229,0.3228,0,0.2845,0.2861,0.2871,0.2905,0.2943,0.2974,0.3017,0.3045,0.3074,0.3103,0.3192,0.3233,0.3296,0.3307,0.3314,0.343,0.3405,0.3396,0.3362,0.3445,0.3455,0.3473,0.3238,0.3236,0.3234,0.3233,0,0,0.2815,0.2861,0.2867,0.2895,0.2965,0.2996,0.3053,0.3107,0.3161,0.3209,0.3289,0.3368,0.3408,0.3435,0.3463,0.3529,0.3653,0.3515,0.3517,0.3547,0.3806,0.3625,0.3625,0.3686,0.369,0.3693,0.3763,0,0.2812,0.285,0.2879,0.2942,0.2973,0.3031,0.3102,0.3171,0.3213,0.3294,0.337,0.346,0.3454,0.3516,0.359,0.3654,0.3708,0.3633,0.371,0.3711,0.3553,0.3643,0.3352,0.3377,0.3779,0.3782,0.3784,0,0.28,0.2833,0.2884,0.2978,0.3,0.3056,0.3167,0.3231,0.335,0.3398,0.3499,0.3554,0.3688,0.3665,0.3822,0.3782,0.3804,0.383,0.3834,0.3642,0.3563,0.3362,0.3393,0.3813,0.3811,0.3809,0.3807,0,0.2769,0.2835,0.2877,0.2909,0.3027,0.307,0.3145,0.3263,0.333,0.3471,0.354,0.369,0.3796,0.3871,0.392,0.3896,0.4065,0.403,0.3875,0.386,0.3612,0.3568,0.4128,0.4127,0.4127,0.4127,0.4127,0,0.2753,0.2788,0.2871,0.2897,0.2985,0.3083,0.318,0.3266,0.3416,0.3519,0.3609,0.3696,0.3863,0.3956,0.3975,0.3979,0.4112,0.3902,0.3884,0.3632,0.3591,0.3966,0.3947,0.413,0.4129,0.4129,0.4128,0,0.2725,0.2767,0.2831,0.2941,0.2968,0.3053,0.3185,0.326,0.3408,0.3545,0.3606,0.3762,0.387,0.3967,0.4098,0.4033,0.4054,0.4009,0.367,0.3608,0.3773,0.3759,0.3848,0.3842,0.3838,0.3834,0.383,0,0.2711,0.2734,0.2841,0.2872,0.2917,0.302,0.3089,0.3248,0.3329,0.3547,0.3615,0.3763,0.3792,0.3882,0.385,0.3841,0.3963,0.3532,0.3416,0.3781,0.3755,0.3747,0.3738,0.313,0.3121,0.3114,0.3108,0,0.2686,0.2733,0.2774,0.2842,0.2902,0.297,0.3076,0.3118,0.3325,0.3417,0.3508,0.3533,0.3619,0.3457,0.3462,0.3412,0.3509,0.3378,0.3911,0.3223,0.3103,0.3077,0.3093,0.3045,0.3051,0.3056,0.3059,0.3062,0.2659,0.2684,0.2734,0.2796,0.2844,0.2878,0.2889,0.2975,0.3047,0.3135,0.3273,0.3217,0.324,0.305,0.2945,0.2879,0.3106,0.2962,0.2985,0.3016,0.2898,0.2775,0.263,0.2634,0.2637,0.264,0.2643,0,0.2621,0.2647,0.2673,0.2724,0.2709,0.2811,0.2846,0.2794,0.277,0.2873,0.289,0.2623,0.2483,0.2526,0.2305,0.2251,0.2256,0.2167,0.2165,0.2229,0.2286,0.2132,0.1661,0.1658,0.1655,0.1652,0,0,0.2592,0.2581,0.258,0.2545,0.2591,0.252,0.2503,0.2452,0.2443,0.2317,0.2284,0.2423,0.2466,0.2062,0.1976,0.1787,0.2007,0.1715,0.2506,0.2572,0.2626,0.2746,0.258,0,0,0,0,0]},{"header":{"parameterUnit":"m.s-1","parameterCategory":2,"la1":30.2991,"la2":30.254,"lo1":-89.0895,"lo2":-89.0444,"dy":0.0017,"dx":0.0017,"nx":28,"ny":28,"refTime":"2024-08-03T03:00:00:Z","depth":"2","parameterNumber":3,"parameterNumberName":"V-component_of_CURRENTS"},"data":[0,0,0,0,0,0,0,0,0,0,0,0,0,0,0,0,0,0,0,0,0,0,0,0,0,0,0,0,0,0,0,0,0,0,0,0,0,0,0,0,0,0,0,0,0,0,0,0,0,0,0,0,0,0,0,0,0,0,0.0171,0.017,0,0.0143,0.0143,0.0143,0.0123,0.0123,0.0123,0.0122,0.009,0.0089,0.0089,0,0,0,0,0,0,0,0,0,0,0,0,0,0.0178,0.0178,0.0171,0.017,0.017,0.0143,0.0143,0.0143,0.0123,0.0123,0.0122,0.0122,0.009,0.0089,0.0089,0,0,0,0,0,0,0,0,0,0,0,0,0,0.0165,0.0178,0.0171,0.0157,0.0155,0.0143,0.0143,0.0142,0.0123,0.0123,0.0122,0.0122,0.0091,0.009,0.0088,0.0087,0,0,0.0085,0.0085,0,0,0,0,0,0,0,0,0.0166,0.0165,0.0159,0.0158,0.0156,0.0136,0.0134,0.0124,0.0123,0.0135,0.0122,0.0122,0.0105,0.0103,0.0099,0.0086,0.0084,0.0085,0.0085,0.0084,0.0084,0,0,0,0,0,0,0,0.0167,0.0166,0.016,0.0159,0.0157,0.0142,0.014,0.0131,0.0122,0.0134,0.0133,0.013,0.0104,0.01,0.0098,0.0084,0.0085,0.0084,0.0084,0.0083,0.0077,0.0077,0,0,0,0,0,0,0.0172,0.0167,0.0161,0.0159,0.016,0.0143,0.014,0.0143,0.0122,0.0119,0.013,0.0129,0.0102,0.0099,0.0096,0.0118,0.0084,0.0083,0.0083,0.0076,0.0077,0.0077,0,0,0,0,0,0,0.0172,0.0172,0.0162,0.0162,0.0159,0.0143,0.0146,0.0142,0.0141,0.0119,0.0115,0.0132,0.0101,0.0098,0.0097,0.0115,0.0083,0.0082,0.0076,0.0076,0.0077,0.0145,0,0,0,0,0,0,0.0173,0.0172,0.0177,0.0162,0.016,0.0163,0.0146,0.0142,0.0139,0.0138,0.0119,0.0116,0.0101,0.0099,0.0096,0.0113,0.0081,0.0075,0.0076,0.0077,0.0142,0.0147,0.0152,0,0,0,0,0,0.0173,0.0182,0.0178,0.0177,0.0167,0.0164,0.0161,0.0148,0.014,0.0144,0.0133,0.0117,0.0102,0.0099,0.0095,0.0112,0.0075,0.0076,0.0077,0.0139,0.0146,0.0152,0,0,0,0,0,0,0.0187,0.018,0.0176,0.0182,0.0177,0.016,0.0164,0.0153,0.0147,0.0148,0.0124,0.0121,0.0125,0.0108,0.0104,0.0111,0.0085,0.0085,0.0134,0.014,0.0145,0.0172,0.008,0,0,0,0,0,0.0193,0.02,0.0189,0.0196,0.0195,0.0181,0.0178,0.0171,0.0162,0.0159,0.0146,0.0133,0.0125,0.0125,0.0112,0.012,0.0103,0.0127,0.0132,0.0137,0.0156,0.0152,0.0159,0.0081,0.0081,0.0081,0,0,0.02,0.0198,0.0201,0.0199,0.0195,0.0208,0.0179,0.0182,0.0195,0.0157,0.0171,0.015,0.013,0.0138,0.0138,0.0128,0.0145,0.0138,0.0143,0.0159,0.0153,0.0161,0.0168,0.0081,0.0081,0.0081,0,0,0.0222,0.0218,0.0233,0.0235,0.0233,0.0228,0.0232,0.0222,0.022,0.0227,0.0204,0.0198,0.0185,0.0179,0.0173,0.02,0.017,0.019,0.0246,0.0242,0.0248,0.0254,0.0224,0.0227,0.0197,0.0198,0.0198,0,0.023,0.0252,0.0236,0.0255,0.0266,0.0242,0.0269,0.0264,0.0255,0.0263,0.0242,0.0233,0.0208,0.0227,0.0235,0.0214,0.0199,0.0225,0.025,0.0256,0.0261,0.0228,0.0231,0.0201,0.02,0.02,0.02,0,0.0266,0.0286,0.0297,0.0318,0.0326,0.0344,0.0339,0.0346,0.0339,0.0333,0.0344,0.0312,0.0314,0.0296,0.0276,0.0301,0.0273,0.0255,0.0239,0.0273,0.0236,0.0237,0.0206,0.0204,0.0203,0.0203,0,0,0.0282,0.0317,0.0323,0.0354,0.0365,0.0382,0.0404,0.0424,0.0456,0.043,0.0469,0.0438,0.0421,0.0413,0.0382,0.0374,0.0379,0.0338,0.0336,0.0316,0.0356,0.0306,0.0302,0.0371,0.0372,0.0372,0.0309,0,0.032,0.0377,0.0381,0.0443,0.0478,0.0474,0.0508,0.052,0.0521,0.055,0.0513,0.0534,0.0466,0.0479,0.0458,0.0414,0.0388,0.0397,0.0319,0.0316,0.0276,0.0304,0.0315,0.0259,0.031,0.031,0.031,0,0.0359,0.0398,0.0464,0.0532,0.0547,0.0578,0.0638,0.0669,0.0687,0.0691,0.069,0.0662,0.0655,0.0592,0.0523,0.0535,0.0453,0.0398,0.0394,0.0332,0.027,0.0235,0.0258,0.0311,0.0311,0.0311,0.0311,0,0.0396,0.046,0.0521,0.0541,0.0605,0.0639,0.0679,0.0711,0.0768,0.0791,0.0835,0.0792,0.0808,0.0708,0.0586,0.0565,0.0501,0.0453,0.0319,0.0312,0.03,0.0291,0.0393,0.0393,0.0393,0.0393,0.0393,0,0.0442,0.0493,0.0546,0.0584,0.0677,0.0699,0.0798,0.0825,0.0894,0.0993,0.0923,0.0976,0.0844,0.0785,0.0639,0.0493,0.0537,0.0339,0.0304,0.0319,0.0313,0.0345,0.034,0.0391,0.0391,0.0392,0.0392,0,0.0475,0.0506,0.0589,0.0667,0.0698,0.077,0.0891,0.0969,0.1017,0.1147,0.1171,0.1141,0.1057,0.0891,0.0737,0.0581,0.043,0.0355,0.0366,0.0334,0.0221,0.0221,0.0201,0.0199,0.0197,0.0196,0.0195,0,0.0499,0.0543,0.065,0.0716,0.0756,0.0861,0.0947,0.1026,0.113,0.1251,0.1332,0.1281,0.124,0.0967,0.0706,0.0437,0.0409,0.0261,0.0213,0.0239,0.0207,0.0209,0.0211,0.0209,0.0208,0.0208,0.0207,0,0.0553,0.0587,0.0656,0.0794,0.0892,0.1015,0.1149,0.1246,0.1374,0.1469,0.1565,0.1529,0.1273,0.0997,0.0632,0.0445,0.0303,0.0233,0.0291,0.0254,0.0242,0.0212,0.0214,0.02,0.0201,0.0201,0.0201,0.0202,0.0593,0.0652,0.0752,0.0885,0.1006,0.1166,0.1282,0.1421,0.1584,0.1726,0.1696,0.1634,0.1341,0.0843,0.0543,0.0233,0.0241,0.0115,0.012,0.0126,0.0136,0.0122,0.0057,0.0057,0.0057,0.0057,0.0057,0,0.0653,0.0725,0.0845,0.1014,0.1155,0.1213,0.1423,0.1526,0.1706,0.1782,0.1815,0.1508,0.1192,0.0861,0.0395,0.0105,0.0094,0.0011,0.0068,0.0076,0.0084,0.0094,0.0002,0.0001,0.0001,-0.0,0,0,0.0688,0.0801,0.0863,0.1106,0.1232,0.1422,0.1539,0.1677,0.1765,0.1795,0.1755,0.1654,0.1269,0.0923,0.0543,0.0278,0.0241,0.0217,0.0289,0.0408,0.0419,0.0166,0.0193,0,0,0,0,0]}],[{"header":{"parameterUnit":"m.s-1","parameterCategory":2,"la1":30.2991,"la2":30.254,"lo1":-89.0895,"lo2":-89.0444,"dy":0.0017,"dx":0.0017,"nx":28,"ny":28,"refTime":"2024-08-03T03:00:00:Z","depth":"4","parameterNumber":2,"parameterNumberName":"U-component_of_CURRENTS"},"data":[0,0,0,0,0,0,0,0,0,0,0,0,0,0,0,0,0,0,0,0,0,0,0,0,0,0,0,0,0,0,0,0,0,0,0,0,0,0,0,0,0,0,0,0,0,0,0,0,0,0,0,0,0,0,0,0,0,0,0.1563,0.1564,0,0.1591,0.1591,0.1591,0.1617,0.1618,0.1618,0.1619,0.1678,0.1679,0.1681,0,0,0,0,0,0,0,0,0,0,0,0,0,0.1528,0.1528,0.1563,0.1564,0.1564,0.1591,0.1591,0.1591,0.1617,0.1618,0.1618,0.1619,0.1678,0.1679,0.1681,0,0,0,0,0,0,0,0,0,0,0,0,0,0.1547,0.1528,0.1563,0.1581,0.1584,0.1591,0.1591,0.1591,0.1617,0.1618,0.1619,0.1619,0.1677,0.1679,0.1681,0.1677,0,0,0.1686,0.1687,0,0,0,0,0,0,0,0,0.1545,0.1548,0.1578,0.158,0.1583,0.1603,0.1601,0.1622,0.1617,0.1603,0.1619,0.162,0.1656,0.166,0.1661,0.168,0.1683,0.1686,0.1687,0.1688,0.1688,0,0,0,0,0,0,0,0.1544,0.1547,0.1573,0.1579,0.1581,0.1587,0.159,0.1604,0.1625,0.1604,0.1606,0.1612,0.1658,0.1659,0.1663,0.1683,0.1686,0.1688,0.1689,0.1689,0.178,0.1782,0,0,0,0,0,0,0.1543,0.1545,0.1572,0.1574,0.1567,0.1587,0.1591,0.1594,0.1624,0.1629,0.1611,0.1613,0.1656,0.1661,0.1665,0.1744,0.1688,0.169,0.1691,0.1779,0.1781,0.1782,0,0,0,0,0,0,0.1542,0.1545,0.1571,0.1561,0.1565,0.1587,0.1591,0.1594,0.1633,0.1629,0.1635,0.1651,0.1657,0.1662,0.171,0.1744,0.169,0.1692,0.1777,0.178,0.1782,0.185,0,0,0,0,0,0,0.1541,0.1545,0.1566,0.1561,0.1566,0.1596,0.159,0.1595,0.1634,0.1637,0.1664,0.1668,0.1658,0.1708,0.1712,0.1745,0.1693,0.1776,0.1778,0.1781,0.1846,0.1855,0.1862,0,0,0,0,0,0.154,0.1555,0.1567,0.1571,0.1588,0.1597,0.16,0.1616,0.1636,0.1654,0.1679,0.1669,0.1727,0.1711,0.1715,0.1749,0.1774,0.1778,0.1781,0.1843,0.1853,0.1861,0,0,0,0,0,0,0.1547,0.1559,0.1572,0.159,0.1606,0.1602,0.1626,0.1641,0.1674,0.1691,0.1691,0.1697,0.1751,0.1741,0.1724,0.1782,0.1748,0.1752,0.1793,0.1803,0.181,0.1821,0.1695,0,0,0,0,0,0.1559,0.1579,0.1587,0.1606,0.1619,0.1633,0.1649,0.166,0.1679,0.1697,0.1718,0.1739,0.176,0.1777,0.1792,0.1827,0.1833,0.185,0.1857,0.1864,0.1876,0.1935,0.195,0.1793,0.1793,0.1792,0,0,0.1566,0.1578,0.1589,0.1611,0.1627,0.1641,0.1645,0.1676,0.1701,0.1698,0.1756,0.1775,0.1778,0.1817,0.1839,0.1817,0.1907,0.1868,0.1873,0.1882,0.194,0.1955,0.1969,0.1795,0.1794,0.1794,0,0,0.1575,0.1604,0.162,0.1637,0.1669,0.1674,0.1694,0.1718,0.1749,0.1799,0.1804,0.1849,0.1882,0.1888,0.1894,0.1954,0.1951,0.196,0.2005,0.2063,0.2077,0.2089,0.2096,0.2109,0.1958,0.1959,0.1959,0,0.1591,0.1603,0.1628,0.1646,0.1658,0.1694,0.1706,0.1742,0.1784,0.1818,0.183,0.1904,0.1913,0.1953,0.1976,0.1973,0.1993,0.197,0.2075,0.2087,0.2099,0.2103,0.2116,0.1962,0.1962,0.1961,0.1961,0,0.1597,0.1622,0.1635,0.1667,0.1685,0.1706,0.1743,0.1794,0.1842,0.1876,0.1957,0.1979,0.2024,0.2031,0.2027,0.2105,0.2088,0.2083,0.2053,0.2119,0.2119,0.2131,0.1968,0.1966,0.1965,0.1964,0,0,0.1591,0.1631,0.1642,0.1653,0.1697,0.1705,0.1767,0.182,0.1876,0.1946,0.2011,0.2068,0.211,0.2119,0.2125,0.217,0.2263,0.2172,0.2173,0.2181,0.2372,0.2214,0.2211,0.2292,0.2295,0.2298,0.2332,0,0.1593,0.1616,0.1638,0.1665,0.1673,0.1724,0.1768,0.1831,0.1907,0.1988,0.2051,0.2123,0.2134,0.2173,0.2227,0.2261,0.2303,0.2252,0.2305,0.2306,0.2161,0.2223,0.2307,0.234,0.2343,0.2345,0.2347,0,0.1585,0.1601,0.1618,0.1653,0.1664,0.17,0.1779,0.1828,0.1952,0.2016,0.2117,0.2178,0.2271,0.2269,0.2379,0.2355,0.238,0.2393,0.2395,0.2235,0.2171,0.2267,0.2368,0.2367,0.2365,0.2364,0.2362,0,0.1542,0.1584,0.1593,0.1606,0.1656,0.1699,0.1748,0.1855,0.1913,0.2062,0.2141,0.2244,0.2328,0.2389,0.246,0.2437,0.2562,0.2522,0.2391,0.2378,0.2479,0.2466,0.2601,0.2601,0.26,0.26,0.26,0,0.1509,0.1522,0.1589,0.1596,0.1629,0.1682,0.1757,0.1832,0.1952,0.2028,0.2173,0.2251,0.238,0.2471,0.2491,0.2486,0.2599,0.2409,0.2389,0.2502,0.2491,0.2486,0.2472,0.2602,0.2601,0.2601,0.2601,0,0.1439,0.1485,0.1498,0.1572,0.1608,0.1636,0.1759,0.1805,0.1954,0.2064,0.2123,0.2298,0.2407,0.2497,0.2588,0.2519,0.2523,0.2494,0.2603,0.2587,0.2278,0.2268,0.2314,0.2309,0.2305,0.2301,0.2298,0,0.1394,0.1396,0.1476,0.1487,0.1528,0.1602,0.1644,0.1789,0.1848,0.2071,0.2104,0.2283,0.2382,0.2395,0.2479,0.2486,0.2464,0.2433,0.2351,0.2279,0.2257,0.2253,0.2248,0.2291,0.229,0.2289,0.2288,0,0.1296,0.1341,0.1355,0.1403,0.145,0.148,0.1576,0.1619,0.1784,0.1948,0.2059,0.213,0.2241,0.2295,0.2339,0.2337,0.2428,0.2387,0.2394,0.2317,0.2252,0.2233,0.2234,0.2273,0.2275,0.2277,0.2278,0,0.1229,0.121,0.1259,0.1285,0.1332,0.1339,0.1411,0.1497,0.1588,0.1848,0.1876,0.207,0.2226,0.2219,0.2253,0.2247,0.2187,0.2093,0.2114,0.2131,0.2054,0.1943,0.1863,0,0,0,0,0,0.1148,0.112,0.1133,0.1142,0.1185,0.1229,0.1339,0.1419,0.1619,0.1648,0.1763,0.1862,0.1936,0.2026,0.1976,0.212,0.2167,0.2048,0.2062,0.2192,0.2209,0.2134,0,0,0,0,0,0,0.1088,0.1091,0.1093,0.1036,0.1022,0.1057,0.113,0.1255,0.1296,0.1513,0.1575,0.1727,0.1832,0.195,0.1938,0.1957,0.192,0.2157,0.2151,0.2182,0.2198,0.2211,0.214,0,0,0,0,0]},{"header":{"parameterUnit":"m.s-1","parameterCategory":2,"la1":30.2991,"la2":30.254,"lo1":-89.0895,"lo2":-89.0444,"dy":0.0017,"dx":0.0017,"nx":28,"ny":28,"refTime":"2024-08-03T03:00:00:Z","depth":"4","parameterNumber":3,"parameterNumberName":"V-component_of_CURRENTS"},"data":[0,0,0,0,0,0,0,0,0,0,0,0,0,0,0,0,0,0,0,0,0,0,0,0,0,0,0,0,0,0,0,0,0,0,0,0,0,0,0,0,0,0,0,0,0,0,0,0,0,0,0,0,0,0,0,0,0,0,0.0134,0.0134,0,0.0122,0.0122,0.0122,0.0117,0.0117,0.0117,0.0117,0.0101,0.01,0.01,0,0,0,0,0,0,0,0,0,0,0,0,0,0.0128,0.0128,0.0134,0.0134,0.0133,0.0122,0.0122,0.0122,0.0117,0.0117,0.0117,0.0117,0.0101,0.01,0.01,0,0,0,0,0,0,0,0,0,0,0,0,0,0.0125,0.0129,0.0134,0.013,0.0129,0.0122,0.0122,0.0122,0.0117,0.0117,0.0117,0.0117,0.0101,0.01,0.0099,0.0094,0,0,0.0097,0.0097,0,0,0,0,0,0,0,0,0.0125,0.0125,0.013,0.013,0.0129,0.0121,0.0114,0.0112,0.0117,0.0122,0.0117,0.0117,0.0107,0.0106,0.0104,0.0094,0.0093,0.0097,0.0097,0.0097,0.0096,0,0,0,0,0,0,0,0.0126,0.0126,0.0129,0.013,0.013,0.012,0.012,0.0113,0.0114,0.0121,0.0121,0.012,0.0107,0.0104,0.0103,0.0093,0.0097,0.0097,0.0096,0.0096,0.0078,0.0077,0,0,0,0,0,0,0.0128,0.0126,0.013,0.0129,0.0127,0.0121,0.012,0.0124,0.0114,0.0113,0.012,0.0119,0.0105,0.0104,0.0102,0.0107,0.0097,0.0096,0.0095,0.0078,0.0078,0.0077,0,0,0,0,0,0,0.0128,0.0129,0.013,0.0127,0.0126,0.0121,0.0125,0.0124,0.0126,0.0113,0.0112,0.0123,0.0105,0.0103,0.0103,0.0106,0.0096,0.0095,0.0078,0.0078,0.0077,0.0108,0,0,0,0,0,0,0.0128,0.0129,0.0135,0.0127,0.0127,0.0131,0.0124,0.0123,0.0124,0.0124,0.0116,0.0114,0.0105,0.0104,0.0102,0.0105,0.0094,0.0078,0.0078,0.0078,0.0108,0.0109,0.0111,0,0,0,0,0,0.0128,0.0135,0.0135,0.0136,0.0134,0.0132,0.0131,0.0126,0.0125,0.0128,0.0123,0.0114,0.0101,0.0104,0.0101,0.0104,0.0078,0.0078,0.0078,0.0107,0.0109,0.0111,0,0,0,0,0,0,0.0136,0.0135,0.0135,0.0142,0.014,0.0131,0.0134,0.013,0.0128,0.013,0.0118,0.0116,0.0114,0.0104,0.0106,0.0096,0.0086,0.0086,0.0109,0.0111,0.0113,0.0126,0.0094,0,0,0,0,0,0.014,0.0146,0.0142,0.0148,0.0149,0.0143,0.0142,0.014,0.0135,0.0135,0.0129,0.012,0.011,0.0108,0.0099,0.0098,0.0076,0.0095,0.0097,0.0099,0.0106,0.0072,0.0072,0.0077,0.0077,0.0077,0,0,0.0145,0.0145,0.0149,0.0151,0.015,0.0157,0.0143,0.0146,0.0153,0.0133,0.0143,0.0127,0.011,0.0108,0.0106,0.0102,0.0085,0.0098,0.01,0.0107,0.0072,0.0071,0.0071,0.0077,0.0077,0.0077,0,0,0.0157,0.0159,0.0169,0.0171,0.0172,0.0169,0.0171,0.0168,0.0169,0.0173,0.0157,0.0144,0.0137,0.0122,0.0114,0.0119,0.0094,0.0114,0.0136,0.0103,0.0102,0.0102,0.0071,0.0067,0.0116,0.0117,0.0117,0,0.0162,0.0179,0.0171,0.0182,0.0191,0.0177,0.0194,0.019,0.0186,0.0191,0.0182,0.016,0.0143,0.0133,0.0135,0.0123,0.0102,0.0132,0.0106,0.0105,0.0103,0.0072,0.0067,0.0118,0.0118,0.0118,0.0118,0,0.0182,0.0199,0.0206,0.0219,0.0224,0.0236,0.0232,0.0238,0.0236,0.023,0.0223,0.0193,0.0183,0.0167,0.0155,0.0137,0.0125,0.0111,0.0103,0.0105,0.0071,0.0066,0.012,0.012,0.0119,0.0119,0,0,0.0191,0.0216,0.0221,0.0246,0.0249,0.0263,0.0271,0.0281,0.0299,0.0275,0.0287,0.0251,0.0233,0.0221,0.0192,0.0159,0.0126,0.0137,0.0135,0.0111,0.0054,0.0048,0.0042,0.0108,0.0108,0.0107,0.0034,0,0.0214,0.0253,0.0255,0.0299,0.0324,0.0321,0.0337,0.0341,0.0337,0.0342,0.0297,0.0296,0.0253,0.0251,0.0208,0.0148,0.0114,0.0147,0.0052,0.005,0.0047,0.0036,0.0105,0.003,0.0028,0.0027,0.0027,0,0.0237,0.0265,0.0311,0.0362,0.0373,0.0393,0.0428,0.0445,0.0435,0.0429,0.0402,0.0368,0.0319,0.0284,0.0174,0.0198,0.0135,0.008,0.0076,0.0059,0.0034,0.0026,0.0017,0.0018,0.0018,0.0019,0.002,0,0.0263,0.031,0.0355,0.037,0.0413,0.044,0.0467,0.0474,0.0505,0.0489,0.0499,0.0422,0.0397,0.0298,0.0184,0.0182,0.006,0.0041,-0.0027,-0.0028,-0.0014,-0.0012,-0.0031,-0.0031,-0.0031,-0.0031,-0.0031,0,0.0292,0.0333,0.0377,0.0407,0.0478,0.0489,0.0556,0.0567,0.0584,0.0621,0.0555,0.0547,0.0401,0.0314,0.0201,0.007,0.007,-0.0023,-0.0048,-0.0,0.0004,-0.0018,-0.0016,-0.0034,-0.0033,-0.0032,-0.0032,0,0.0314,0.0339,0.0406,0.0467,0.0496,0.0552,0.0635,0.0675,0.0685,0.0726,0.0727,0.0642,0.0518,0.0369,0.02,0.0105,-0.0026,-0.0069,-0.0003,-0.0023,-0.0097,-0.0092,-0.0155,-0.0156,-0.0157,-0.0157,-0.0158,0,0.0328,0.0363,0.0457,0.0511,0.0545,0.0629,0.0684,0.0724,0.0765,0.078,0.0794,0.0697,0.0618,0.038,0.0206,-0.0014,-0.0043,-0.0107,-0.011,-0.0092,-0.011,-0.0104,-0.0098,-0.0159,-0.0159,-0.0159,-0.0159,0,0.0361,0.0394,0.0449,0.0559,0.0635,0.0723,0.0803,0.0839,0.0878,0.0889,0.0856,0.0734,0.059,0.0381,0.0214,0.0054,-0.0068,-0.0115,-0.0115,-0.0118,-0.0098,-0.0113,-0.0107,-0.0162,-0.0161,-0.0161,-0.0161,0,0.0384,0.0427,0.0504,0.0602,0.07,0.0785,0.0829,0.0874,0.0917,0.0925,0.0904,0.0755,0.0662,0.0417,0.0258,0.01,0.0055,0.0009,0.0001,0.0002,0.0063,0.0113,0.0094,0,0,0,0,0,0.0406,0.0455,0.0544,0.0647,0.0742,0.0801,0.0892,0.092,0.0951,0.0942,0.0932,0.08,0.0562,0.0449,0.0291,0.0223,0.0014,0.0031,-0.0047,-0.0175,-0.0172,-0.0128,0,0,0,0,0,0,0.0421,0.0497,0.054,0.0665,0.0733,0.0838,0.0894,0.0917,0.0914,0.092,0.0794,0.0754,0.0514,0.0648,0.0282,0.0234,0.0162,-0.0077,-0.008,-0.0177,-0.0174,-0.0172,-0.0126,0,0,0,0,0]}]]